Regional Weather Roundup
Issued by NWS

Home | Current Version | Previous Version | Graphics & Text | Print | Product List | Glossary Off
Versions: 1 2 3 4 5 6 7 8 9 10 11 12 13 14 15 16 17 18 19 20 21 22 23 24 25 26 27 28 29 30 31 32 33 34 35 36 37 38 39 40 41 42 43 44 45 46 47 48 49 50

000
ASUS43 KMKX 261921
RWRWI

WISCONSIN REGIONAL WEATHER ROUNDUP
NATIONAL WEATHER SERVICE MILWAUKEE/SULLIVAN WI
200 PM CDT SUN APR 26 2015

NOTE: "FAIR" INDICATES FEW OR NO CLOUDS BELOW 12,000 FEET WITH NO
SIGNIFICANT WEATHER AND/OR OBSTRUCTIONS TO VISIBILITY.

WIZ001-002-006>008-014>016-023>028-262000-
NORTHWEST WISCONSIN

CITY           SKY/WX    TMP DP  RH WIND       PRES   REMARKS
SUPERIOR ARPT  SUNNY     46  29  51 E10       30.19S
ASHLAND        SUNNY     50  30  46 NE13      30.19S
HAYWARD        SUNNY     56  17  21 N13G20    30.12F
SIREN          SUNNY     57  20  23 E7        30.12F
CUMBERLAND     SUNNY     55  18  22 CALM      30.11S
RICE LAKE      SUNNY     57  20  24 CALM      30.12F
CHETEK         SUNNY     58  24  27 CALM      30.10S
LADYSMITH      SUNNY     59  23  25 N6        30.11S
EAU CLAIRE     SUNNY     59  21  23 NE5       30.09F
MENOMONIE      SUNNY     59  14  16 N6        30.10F
NEW RICHMOND   SUNNY     58  18  21 N3        30.11F
OSCEOLA        SUNNY     59  25  26 CALM      30.14F
$$

WIZ003>005-009-010-017-018-262000-
NORTH CENTRAL WISCONSIN

CITY           SKY/WX    TMP DP  RH WIND       PRES   REMARKS
MANITOWISH WTR SUNNY     53  25  33 N10G17    30.09S
ARBOR VITAE    SUNNY     57  21  24 NE13G21   30.07F
WOODRUFF       SUNNY     57  21  24 NE13G21   30.07F
RHINELANDER    SUNNY     56  18  22 N8        30.06F
EAGLE RIVER    SUNNY     54  19  25 N12G20    30.06S
LAND O LAKES   SUNNY     53  23  30 N10G18    30.09S
PHILLIPS       SUNNY     56  23  27 N7G17     30.08S
TOMAHAWK       SUNNY     57  15  18 N12G17    30.06F
MEDFORD        SUNNY     56  24  29 N5        30.06F
MERRILL        SUNNY     58  22  24 N12G18    30.05F
$$

WIZ029-030-035-036-043>047-262000-
CENTRAL WISCONSIN

CITY           SKY/WX    TMP DP  RH WIND       PRES   REMARKS
WAUSAU         SUNNY     59  19  21 NW13G18   30.03F
MOSINEE        SUNNY     57  21  24 NW7       30.06F
MARSHFIELD     SUNNY     59  25  27 MISG      30.06F
STEVENS POINT  SUNNY     57  20  23 N8        30.04F
WAUPACA        SUNNY     61  22  22 NE5       30.04F
WAUTOMA        SUNNY     59  20  22 N9        30.05F
WISC RAPIDS    SUNNY     59  19  21 NE10      30.07F
CAMP DOUGLAS   SUNNY     59  23  25 VRB7      30.05F
$$

WIZ011>013-019>022-031-037>040-048>050-262000-
NORTHEAST WISCONSIN

CITY           SKY/WX    TMP DP  RH WIND       PRES   REMARKS
ANTIGO         SUNNY     56  22  27 N6        30.04F
SHAWANO        SUNNY     61  17  18 NE5       30.03F
OCONTO         SUNNY     53  24  32 E9        30.04F
STURGEON BAY   SUNNY     54  25  32 N13       30.06F
GREEN BAY      SUNNY     56  26  31 SE9       30.04F
MANITOWOC      SUNNY     55  28  35 NE10      30.04F
APPLETON       SUNNY     55  19  24 NE7G14    30.04F
CLINTONVILLE   SUNNY     61  19  20 N8G18     30.02F
OSHKOSH        SUNNY     55  26  32 E9        30.04F
$$

WIZ032>034-041-042-053>061-262000-
SOUTHWEST WISCONSIN

CITY           SKY/WX    TMP DP  RH WIND       PRES   REMARKS
LA CROSSE      SUNNY     61  25  25 W12       30.07F
SPARTA         SUNNY     59  20  21 CALM      30.07F
VIROQUA        SUNNY     57  24  27 NE7       30.07S
BOSCOBEL       SUNNY     60  24  25 E9        30.06F
PRAIRIE DU CHI SUNNY     57  24  27 W7        30.06F
PLATTEVILLE    SUNNY     56  28  34 CALM      30.05F
$$

WIZ056-057-062-063-064-067-068-262000-
SOUTH CENTRAL WISCONSIN

CITY           SKY/WX    TMP DP  RH WIND       PRES   REMARKS
REEDSBURG      SUNNY     56  26  31 N9        30.05F
BARABOO/DELLS  SUNNY     56  22  26 N6        30.05F
LONE ROCK      SUNNY     58  25  28 VRB3      30.05F
MINERAL POINT  SUNNY     55  25  30 E3        30.05F
MADISON        MOSUNNY   58  27  30 N14G20    30.05F
MIDDLETON      SUNNY     57  26  30 NE8       30.05F
WATERTOWN      SUNNY     57  29  35 N12       30.03S
MONROE         SUNNY     55  30  38 CALM      30.04S
JANESVILLE     SUNNY     57  25  28 N12G17    30.03F
$$

WIZ051-052-058>065-066-070>072-262000-
SOUTHEAST WISCONSIN

CITY           SKY/WX    TMP DP  RH WIND       PRES   REMARKS
MILWAUKEE      MOSUNNY   47  32  56 NE13      30.05S
WAUKESHA       MOSUNNY   55  27  33 N9G17     30.03S
MILWAUKEE/TIMM NOT AVBL
RACINE         SUNNY     49  31  49 NE14      30.05S
BURLINGTON     SUNNY     57  28  32 NE14G21   30.01F
KENOSHA        SUNNY     56  29  35 NE16      30.02F
FOND DU LAC    SUNNY     58  26  29 NE14      30.04F
SHEBOYGAN      SUNNY     54  30  40 E13       30.04F
WEST BEND      MOSUNNY   55  27  33 NE8       30.02F
JUNEAU         SUNNY     55  27  34 N12G21    30.05S
$$

LSZ147-162-262000-
LAKE SUPERIOR

STATION/POSITION TIME  TEMP    WIND        PRES    WAVE
                       AIR SEA DIR/SP/G            HT/PER
                 (UTC) (F)     (DEG/KT/KT) (MB)    (FT/S)
W MID LAKE BUOY  1850   36 35   80/  6/  8 1023.8S   1/ 3
DEVILS ISLAND    1900   38      60/  6/  6 1023.5F
PORT WING        1800   39      20/  8/ 10 1022.7
SAXON HARBOR     1800   39      20/  4/  5 1022.4S
$$

LMZ867-665-643>646-262000-
LAKE MICHIGAN

STATION/POSITION TIME  TEMP    WIND        PRES    WAVE
                       AIR SEA DIR/SP/G            HT/PER
                 (UTC) (F)     (DEG/KT/KT) (MB)    (FT/S)
CHAMBERS ISLAND  1800   46      40/ 11/ 16 1017.9F
NORTHPORT PIER   1800   44     340/ 10/ 12 1017.9F
SISTER BAY       1632   47     360/ 15/ 18   N/A
KEWAUNEE LAKESHO 1800   43      50/  7/  9 1017.3F
SHEBOYGAN LAKESH 1900   40      10/  6/  7 1018.5F
PORT WASHINGTON  1840   43      50/ 10/ 13 1017.9F
MILWAUKEE LAKESH 1900   40      40/ 12/ 14   N/A
KENOSHA   LAKESH 1900   41      30/ 17/ 19 1016.9S
$$

TC  - TEMPERATURE IN CELSIUS
VSB - VISIBILITY IN STATUTE MILES
WCI - WIND CHILL INDEX
HX  - HEAT INDEX



USA.gov is the U.S. government's official web portal to all federal, state and local government web resources and services.